{"data":{"norad_id":56708,"epoch":"2026-05-25T03:57:15.490368Z","epoch_age_seconds":70677,"freshness":"FRESH","line1":"1 56708U 23067W   26145.16476262  .00003794  00000+0  14732-3 0  9998","line2":"2 56708  43.0014 202.7682 0002094 271.8684  88.1928 15.27579359167359","mean_motion":15.27579359,"eccentricity":0.0002094,"inclination_deg":43.0014,"raan_deg":202.7682,"arg_perigee_deg":271.8684,"mean_anomaly_deg":88.1928,"bstar":0.00014732,"rev_number":16735,"period_min":94.266788269689,"perigee_km":481.61428265449,"apogee_km":484.48774819535,"semimajor_km":6861.1880154249,"source":"CELESTRAK","updated_at":"2026-05-25T13:38:18.123047Z"}}